Weather in Arhangelsk

Russia / Arkhangel'skaya Oblast'     64°32′21″N   40°31′00″E
temp.,
°C
wind,
m/s
gust,
m/s
humid.,
%
clouds,
%
prec.,
mm/h
press.,
hPa
HPBL,
m
30 june, thu
thu3000:00+11nw146626 0.0 102090
03:00+9ene127442 0.0 102117
06:00+12e356555 0.0 1021337
09:00+17e233753 0.0 1021693
12:00+21e222613 0.0 10211127
15:00+23ene232313 0.0 10211398
18:00+23ne122671 0.0 10201337
21:00+16nne1154100 0.0 102011
1 july, fri
fri100:00+12sse115898 0.0 102210
03:00+11ssw22625 0.0 102214
06:00+16wsw124911 0.0 1022157
09:00+21wsw123896 0.0 1021537
12:00+25nw343211 0.0 10211158
15:00+24nw4536100 0.0 1020818
18:00+21nw364348 0.0 1020377
21:00+18nne26745 0.0 1020191
2 july, sat
sat200:00+13ne27891 0.0 1021156
03:00+10nne269217 0.0 1022168
06:00+12nne247452 0.0 1022360
09:00+17nne235544 0.0 1022730
12:00+21n33442 0.0 10211080
15:00+22nnw33430 0.0 10201078
18:00+20nnw33530 0.0 1019364
21:00+15nw23740 0.0 101960
3 july, sun
sun300:00+12se00783 0.0 101910
03:00+12s11815 0.0 101910
06:00+17s12640 0.0 1018167
09:00+23s23450 0.0 1017780
12:00+27ssw22320 0.0 10161344
15:00+29sw22300 0.0 10151697
18:00+29ssw1233100 0.0 10141669
21:00+22s2460100 0.0 101462
4 july, mon
mon400:00+19sw266677 0.0 1013118
03:00+17sse1175100 0.1 101415
06:00+19ssw127884 0.4 1013105
09:00+24wnw235855 0.4 1013583
12:00+26nw444972 0.0 1013971
15:00+24nnw456035 0.8 1012584
18:00+23wnw344829 0.3 1012428
21:00+17nnw236241 0.3 101272